Hourly Data Report for November 18, 2018

VICTORIA UNIVERSITY CS
BRITISH COLUMBIA
Current Station Operator: ECCC - MSC

48°27'25.200" N
123°18'16.600" W
60.10 m
1018598
71783
WYJ

Download Data

Hourly Data (November 2018)
Hourly Data Report for November 18, 2018
TIME
LST
Temp Definition
°C
Dew Point Definition
°C
Rel Hum Definition
%
Precip. Amount Definition
mm

Wind Dir Definition
10's deg

Wind Spd Definition
km/h
Visibility Definition
km
Stn Press Definition
kPa
Hmdx Definition


Wind Chill Definition


Weather Definition


00:00 5.5 2.8 83 0.0 35 7   101.73     LegendNANA
01:00 5.2 3.0 86 0.0 34 8   101.70     LegendNANA
02:00 4.9 2.7 86 0.0 35 8   101.67     LegendNANA
03:00 4.9 2.6 85 0.0 35 8   101.66     LegendNANA
04:00 5.0 3.7 91 0.0 36 7   101.66     LegendNANA
05:00 4.5 3.2 91 0.0 35 8   101.63     LegendNANA
06:00 4.7 2.7 87 0.0 1 11   101.64     LegendNANA
07:00 4.3 2.6 89 0.0 33 7   101.61     LegendNANA
08:00 4.4 2.8 89 0.0 33 6   101.61     LegendNANA
09:00 5.5 3.9 89 0.0 1 8   101.64     LegendNANA
10:00 6.7 4.3 85 0.0 35 9   101.61     LegendNANA
11:00 7.1 4.3 83 0.0 36 11   101.61     LegendNANA
12:00 7.8 4.4 79 0.0 1 10   101.56     LegendNANA
13:00 8.3 4.2 76 0.0 1 11   101.52     LegendNANA
14:00 8.2 3.3 71 0.0 1 9   101.48     LegendNANA
15:00 7.9 3.4 73 0.0 1 9   101.47     LegendNANA
16:00 7.1 3.2 76 0.0 36 8   101.45     LegendNANA
17:00 6.1 2.3 77 0.0 2 6   101.44     LegendNANA
18:00 5.8 2.1 77 0.0 1 4   101.41     LegendNANA
19:00 5.7 3.0 83 0.0 36 4   101.41     LegendNANA
20:00 5.6 4.1 90 0.0 35 7   101.43     LegendNANA
21:00 5.4 4.3 93 0.0 35 7   101.43     LegendNANA
22:00 5.2 3.6 90 0.0 36 7   101.44     LegendNANA
23:00 4.8 2.7 86 0.0 32 7   101.44     LegendNANA

Notes on Data Quality.

Legend

  • E = Estimated
  • M = Missing
  • NA = Not Available*
  • [empty] = Indicates an unobserved value
Date modified: